User: anonymous   Login
Location: Mentone
(34.5413°N, 85.5351°W)
Time: 15:18:21
(UTC-06:00)
Language:

Transit 2A Rocket - Orbit

View from above orbital plane
View from above orbital plane
View from above satellite
View from above satellite

Ground track
Ground track

The orbit data is extracted from the following two-line orbital elements,

1 00047U 60007C   17017.15840338 -.00000032  00000-0  17978-4 0  9994
2 00047  66.6650 249.6054 0223045 137.0834 224.7919 14.41888770955296
Epoch (UTC): 17 January 2017 03:48:06
Eccentricity: 0.0223045
inclination: 66.6650°
perigee height: 593 km
apogee height: 911 km
right ascension of ascending node: 249.6054°
argument of perigee: 137.0834°
revolutions per day: 14.41888770
mean anomaly at epoch: 224.7919°
orbit number at epoch: 95529

The dashed part of the orbit path shows where the satellite is in the earth's shadow,  

DLR